{"data":{"norad_id":65102,"intl_designator":"2025-167AA","name":"STARLINK-34857","alt_names":[],"object_type":"PAYLOAD","status":"ACTIVE","operator":null,"country":"US","launch_date":"2025-08-04","launch_site_code":"AFETR","launch_vehicle":null,"mission":null,"orbit_class":"UNKNOWN","rcs_meters":null,"size_class":null,"mass_kg":null,"dimensions":null,"purposes":["comms"],"wikipedia_slug":null,"has_3d_model":false,"image_url":null,"decayed_at":null,"tle_current":{"epoch":"2026-09-20T04:00:46.553472Z","epoch_age_seconds":149037,"freshness":"FRESH","line1":"1 65102U 25167AA  26263.16720548  .00019037  00000+0  57312-3 0  9997","line2":"2 65102  53.1603 195.6220 0001494  89.3584 270.7590 15.34400990 63356","mean_motion":15.3440099,"eccentricity":0.0001494,"inclination_deg":53.1603,"raan_deg":195.622,"arg_perigee_deg":89.3584,"mean_anomaly_deg":270.759,"bstar":0.00057312,"rev_number":6335,"period_min":93.847697530487,"perigee_km":461.67827662778,"apogee_km":463.72231881233,"semimajor_km":6840.8372977201,"source":"CELESTRAK","updated_at":"2026-09-21T09:00:35.526148Z"}}}